Preview of NWS' New Version of Forecast
This preview is not operational and should not be used for support decisions.
Latest weather observations around

East Milton (KMQE)

Using English Units (Switch to International System of Units)
Date/ Time (EDT) Wind (mph) Vis. (mi) Weather Sky Cond. Temp (°F) Rel. Humidity Wind Chill (°F) Heat Index (°F) Pressure Precip. (in)
Air Dwpt 6 hour Altimeter (inHg) Sea level (inHg) 1 hr 3 hr 6 hr
Max Min
Apr 23 00:56 N 10   Clear   46 18     32% 41   30.37 30.41      
Apr 22 23:56 N 10   Clear   48 18     30% 43   30.36 30.4      
Apr 22 22:56 NNW 8   Clear   49 17     28% 45   30.36 30.39      
Apr 22 21:56 Calm   Clear   50 23     34%     30.35 30.39      
Apr 22 20:56 SSE 6   Clear   50 22     33% 48   30.34 30.37      
Apr 22 19:56 SE 8   Clear   51 22     32%     30.31 30.35      
Apr 22 18:56 ENE 3   Clear   56 15     20%     30.28 30.32      
Apr 22 17:56 NW 9   Clear   59 13     16%     30.28 30.32      
Apr 22 16:56 WNW 10   Clear   60 13     15%     30.27 30.31      
Apr 22 15:56 WNW 13   Clear   60 14     16%     30.27 30.31      
Apr 22 14:56 NW 15   Clear   60 14     16%     30.28 30.32      
Apr 22 13:56 NNW 10   Clear   59 15     18%     30.3 30.33      
Apr 22 12:56 NNW 14   Clear   58 17     20%     30.31 30.34      
Apr 22 11:56 6   Clear   55 17     22%     30.32 30.35      
Apr 22 10:56 6   Clear   53 17     24%     30.32 30.36      
Apr 22 09:56 NW 15   Clear   51 18     27%     30.33 30.36      
Apr 22 08:56 WNW 10   Clear   49 20     31% 45   30.33 30.37      
Apr 22 07:56 NW 9   Clear   43 22     43% 38   30.32 30.36      
Apr 22 06:56 NW 11   Clear   38 20     48% 30   30.32 30.36      
Apr 22 05:56 WNW 11   Clear   36 21     54% 28   30.3 30.34      
Apr 22 03:56 WNW 10   Clear   39 20     46% 32   30.29 30.33      
Apr 22 02:56 NW 7   Clear   40 19     43% 35   30.29 30.33      
Apr 22 01:56 NNW 9   Clear   42 19     39% 37   30.29 30.33      
Apr 22 00:56 NNW 8   Clear   44 18     35% 40   30.29 30.33      
Apr 21 23:56 N 9   Clear   46 18     32% 41   30.28 30.32      
Apr 21 22:56 N 9   Clear   46 18     32% 41   30.27 30.31      
Apr 21 21:56 N 11   Clear   48 18     30% 43   30.26 30.29      
Apr 21 20:56 NNW 10   Clear   50 17     27% 46   30.24 30.28      
Apr 21 19:56 NNW 8   Clear   51 18     27%     30.21 30.25      
Apr 21 18:56 NW 10   Clear   54 18     24%     30.18 30.22      
Apr 21 17:56 NW 13   Clear   56 18     22%     30.17 30.21      
Apr 21 16:56 NW 10   Clear   57 19     23%     30.17 30.21      
Apr 21 15:56 W 14   Clear   57 20     23%     30.16 30.21      
Apr 21 14:56 WNW 9   Clear   57 22     25%     30.18 30.22      
Apr 21 13:56 NW 8   Clear   55 22     27%     30.2 30.24      
Apr 21 12:56 WNW 10   Clear   52 23     32%     30.23 30.27      
Apr 21 11:56 NW 11   Clear   52 23     32%     30.24 30.28      
Apr 21 10:56 WNW 15   Clear   50 24     36% 45   30.26 30.3      
Apr 21 09:56 NW 10   Clear   46 23     40% 41   30.26 30.31      
Apr 21 08:56 WNW 14   Clear   44 27     51% 37   30.27 30.32      
Apr 21 07:56 NW 11   Clear   39 27     62% 32   30.28 30.32      
Apr 21 06:56 WNW 11   Clear   34 26     72% 26   30.26 30.31      
Apr 21 05:56 WNW 10   Clear   33 26     75% 25   30.25 30.29      
Apr 21 04:56 NW 14   Clear   33 26     75% 23   30.24 30.29      
Apr 21 03:56 WNW 11   Clear   33 26     75% 24   30.24 30.28      
Apr 21 02:56 WNW 9   Clear   34 26     72% 27   30.22 30.27      
Apr 21 01:56 WNW 10   Clear   34 26     72% 26   30.22 30.26      
Apr 21 00:56 WNW 10   Clear   35 26     69% 27   30.22 30.27      
Apr 20 23:56 WNW 10   Clear   36 26     67% 29   30.22 30.27      
Apr 20 22:56 NW 13   Clear   38 26     62% 30   30.22 30.27      
Apr 20 21:56 NW 14   Clear   39 26     59% 31   30.22 30.26      
Apr 20 20:56 NW 15   Clear   40 25     55% 32   30.2 30.24      
Apr 20 19:56 NW 18   Clear   43 25     49% 35   30.16 30.21      
Apr 20 18:56 NW 16   Clear   44 26     49% 37   30.12 30.17      
Apr 20 17:56 NW 20   Clear and Windy   47 26     44% 40   30.09 30.14      
Apr 20 16:56 NW 18   Clear   50 26     39% 44   30.05 30.09      
Apr 20 15:56 WNW 11   Clear   49 26     41% 44   30.03 30.07      
Apr 20 14:56 NW 18   Clear   49 27     42% 43   30 30.05      
Apr 20 12:56 NW 17   Clear   47 27     46% 40   29.99 30.03      
Apr 20 11:56 NW 20   Clear and Windy   46 28     49% 38   29.97 30.01      
Apr 20 10:56 NW 20   Clear and Windy   45 29     53% 37   29.97 30.01      
Apr 20 09:56 NW 24   Clear and Windy   41 27     57% 31   29.95 30      
Apr 20 08:56 WNW 14   Clear   38 27     64% 30   29.94 29.98      
Apr 20 07:56 WNW 20   Clear and Windy   35 26     69% 24   29.91 29.96      
Apr 20 06:56 WNW 15   Clear   32 26     78% 22   29.91 29.96      
Apr 20 05:56 WNW 15   Clear   31 26     82% 20   29.88 29.93      
Apr 20 04:56 WNW 14   Clear   32 27     81% 22   29.85 29.9      
Apr 20 03:56 WNW 13   Clear   33 28     82% 24   29.84 29.88      
Apr 20 02:56 WNW 15   Clear   34 29     82% 24   29.83 29.87      
Apr 20 01:56 WNW 13   Clear   35 29     78% 26   29.82 29.87      
Apr 19 23:56 WNW 14   Clear   36 32     85% 27   29.8 29.84      
Jun 11 15:56 SW 18   Clear   88 58     36%   87 29.93 29.94      
Notice The following observation data may not be complete
Jun 09 13:56 WNW 15   Clear     49      %     29.63 29.65      
Notice The following observation data may not be complete
Jun 09 08:56     Clear            %              
Jun 08 21:56 SE 7   Clear   57 40     53%     29.87 29.89      
Jun 08 14:56 SE 9   Clear   73 42     33%   72 29.97 30      
Jun 08 13:56 S 9   Clear   76 44     32%   75 29.99 30.01      
Jun 08 08:56 3   Clear   65 48     54%     30.04 30.07      
Jun 07 22:56 S 10   Clear   56 38     51%     30.02 30.04      
Jun 07 19:56 ESE 7   Clear   60 41     49%     29.99 30.02      
Jun 07 14:56 NE 11   Clear   64 42     45%     29.95 29.98      
Jun 07 11:56 7   Clear   61 50     67%     29.96 29.99      
Jun 06 03:56 NE 17   Clear   49 48     97% 43   29.75 29.79 0    
Jun 05 18:56 ENE 17   Clear   51 50     96%     29.81 29.85 0